Location: Sternwarte ZA, Rosenfeld-Brittheim
(48.2889°N, 8.6789°E)
Time: 21:31:24
(UTC+01:00)

ISS - Pass Details

Date: 28 February 2021
Orbit: 417 x 422 km, 51.6° (Epoch: 02 March)

Event Time Altitude Azimuth Distance (km) Brightness Sun altitude
Exits shadow 05:39:28 35° 289° (WNW) 703 -3.1 -15.6°
Maximum altitude 05:40:36 54° 348° (NNW) 513 -3.4 -15.4°
Drops below altitude 10° 05:43:55 10° 67° (ENE) 1,500 0.3 -14.8°
Sets 05:46:02 0° 72° (ENE) 2,365 1.7 -14.5°
